QPF
0.08 0.14 0.16 0.13 0.11 0.11 0.11 0.13 0.09 0.08 0.08 0.09 0.10 0.10 0.12 0.09 0.05 0.06 0.06 0.07 0.07 0.11 0.11 0.07 0.04 0.04 0.05 0.06 0.06 0.07 0.05 0.05 0.05 0.05 0.05 0.04 0.04 0.05 0.06 0.06 0.04 0.04 0.03
0.06 0.10 0.11 0.11 0.11 0.10 0.10 0.07 0.07 0.09 0.09 0.11 0.11 0.10 0.12 0.10 0.08 0.07 0.10 0.10 0.11 0.10 0.10 0.09 0.06 0.06 0.06 0.06 0.05 0.05 0.05 0.05 0.06 0.06 0.07 0.07 0.08 0.07 0.06 0.07 0.05 0.04 0.04
0.06 0.08 0.08 0.09 0.08 0.07 0.06 0.05 0.06 0.08 0.09 0.11 0.12 0.14 0.15 0.12 0.10 0.12 0.13 0.13 0.11 0.09 0.09 0.09 0.08 0.06 0.06 0.05 0.05 0.05 0.05 0.05 0.07 0.07 0.06 0.06 0.07 0.07 0.06 0.06 0.05 0.04 0.04
0.06 0.07 0.08 0.07 0.05 0.05 0.05 0.05 0.06 0.07 0.10 0.13 0.15 0.18 0.18 0.14 0.12 0.12 0.13 0.14 0.12 0.12 0.11 0.10 0.09 0.08 0.07 0.05 0.06 0.08 0.07 0.07 0.07 0.07 0.10 0.08 0.05 0.05 0.06 0.06 0.05 0.05 0.04
0.09 0.11 0.11 0.07 0.06 0.06 0.05 0.06 0.07 0.08 0.11 0.13 0.12 0.12 0.11 0.10 0.12 0.13 0.14 0.13 0.12 0.13 0.16 0.14 0.09 0.07 0.06 0.06 0.07 0.08 0.08 0.08 0.07 0.06 0.09 0.14 0.10 0.07 0.06 0.06 0.06 0.06 0.04
0.14 0.14 0.14 0.09 0.06 0.06 0.06 0.07 0.08 0.09 0.10 0.11 0.10 0.09 0.09 0.08 0.11 0.13 0.12 0.11 0.11 0.13 0.16 0.16 0.12 0.07 0.06 0.06 0.06 0.06 0.08 0.08 0.07 0.07 0.08 0.12 0.13 0.08 0.06 0.07 0.06 0.05 0.04
0.11 0.13 0.14 0.10 0.08 0.07 0.07 0.07 0.07 0.08 0.09 0.10 0.10 0.08 0.09 0.10 0.12 0.12 0.11 0.11 0.11 0.11 0.14 0.15 0.13 0.08 0.05 0.05 0.05 0.08 0.11 0.08 0.08 0.11 0.11 0.10 0.12 0.09 0.06 0.07 0.08 0.08 0.07
0.08 0.14 0.22 0.17 0.11 0.09 0.08 0.07 0.07 0.08 0.09 0.10 0.10 0.07 0.07 0.08 0.10 0.11 0.13 0.15 0.13 0.11 0.11 0.13 0.14 0.11 0.06 0.04 0.06 0.11 0.16 0.11 0.10 0.14 0.13 0.09 0.09 0.10 0.10 0.11 0.12 0.11 0.10
0.08 0.10 0.15 0.13 0.10 0.08 0.06 0.07 0.07 0.10 0.11 0.11 0.10 0.08 0.07 0.09 0.11 0.11 0.14 0.16 0.12 0.09 0.10 0.12 0.13 0.13 0.08 0.06 0.08 0.16 0.18 0.17 0.16 0.18 0.14 0.09 0.06 0.07 0.11 0.13 0.14 0.15 0.14
0.09 0.08 0.07 0.07 0.08 0.08 0.07 0.06 0.07 0.10 0.12 0.11 0.09 0.07 0.07 0.08 0.10 0.11 0.13 0.14 0.11 0.09 0.10 0.10 0.12 0.12 0.09 0.08 0.12 0.15 0.16 0.19 0.17 0.16 0.15 0.09 0.06 0.07 0.11 0.11 0.12 0.13 0.11
0.05 0.05 0.05 0.05 0.05 0.06 0.08 0.10 0.11 0.10 0.11 0.12 0.10 0.08 0.09 0.09 0.11 0.12 0.11 0.11 0.11 0.12 0.11 0.11 0.11 0.12 0.11 0.11 0.14 0.15 0.14 0.13 0.11 0.11 0.15 0.11 0.07 0.07 0.10 0.10 0.09 0.08 0.08
0.05 0.06 0.06 0.07 0.08 0.09 0.10 0.10 0.11 0.09 0.11 0.12 0.10 0.09 0.11 0.11 0.12 0.10 0.11 0.12 0.14 0.14 0.13 0.11 0.12 0.15 0.21 0.19 0.17 0.17 0.11 0.09 0.08 0.08 0.12 0.11 0.10 0.10 0.11 0.11 0.08 0.07 0.05
0.05 0.06 0.08 0.10 0.13 0.10 0.08 0.08 0.10 0.11 0.13 0.11 0.09 0.10 0.09 0.08 0.10 0.11 0.13 0.15 0.16 0.16 0.18 0.15 0.13 0.16 0.29 0.26 0.18 0.14 0.12 0.13 0.13 0.12 0.11 0.11 0.11 0.11 0.10 0.10 0.08 0.08 0.08
0.03 0.04 0.06 0.08 0.11 0.10 0.07 0.09 0.11 0.14 0.11 0.07 0.06 0.06 0.06 0.06 0.07 0.08 0.10 0.12 0.14 0.17 0.19 0.16 0.17 0.14 0.27 0.28 0.17 0.14 0.13 0.14 0.14 0.15 0.14 0.12 0.12 0.11 0.09 0.08 0.06 0.08 0.10
0.01 0.01 0.03 0.06 0.09 0.10 0.09 0.10 0.13 0.14 0.09 0.05 0.06 0.07 0.06 0.06 0.07 0.07 0.08 0.10 0.15 0.17 0.16 0.12 0.11 0.08 0.21 0.30 0.23 0.17 0.16 0.13 0.13 0.14 0.13 0.10 0.09 0.09 0.08 0.08 0.07 0.08 0.10
0.01 0.01 0.03 0.05 0.06 0.07 0.10 0.10 0.11 0.11 0.08 0.05 0.05 0.06 0.07 0.07 0.06 0.06 0.07 0.10 0.13 0.13 0.13 0.11 0.09 0.08 0.16 0.22 0.19 0.17 0.16 0.14 0.14 0.13 0.12 0.10 0.08 0.08 0.06 0.07 0.05 0.07 0.08
0.01 0.01 0.03 0.06 0.04 0.03 0.07 0.07 0.07 0.08 0.07 0.06 0.08 0.09 0.07 0.06 0.07 0.09 0.10 0.10 0.08 0.08 0.09 0.09 0.08 0.08 0.11 0.13 0.15 0.16 0.15 0.14 0.13 0.11 0.10 0.10 0.09 0.07 0.06 0.07 0.07 0.07 0.07
0.01 0.01 0.03 0.07 0.04 0.02 0.03 0.06 0.06 0.07 0.07 0.10 0.12 0.10 0.08 0.08 0.09 0.09 0.09 0.09 0.07 0.06 0.07 0.08 0.08 0.08 0.09 0.10 0.12 0.13 0.11 0.10 0.09 0.08 0.09 0.08 0.07 0.06 0.06 0.07 0.07 0.07 0.06
0.01 0.02 0.04 0.04 0.02 0.01 0.02 0.04 0.08 0.09 0.09 0.11 0.11 0.09 0.08 0.08 0.07 0.08 0.08 0.10 0.08 0.06 0.06 0.06 0.07 0.08 0.09 0.10 0.10 0.10 0.08 0.08 0.07 0.05 0.06 0.06 0.06 0.04 0.05 0.05 0.04 0.04 0.04
0.01 0.02 0.02 0.01 0.02 0.01 0.02 0.03 0.05 0.06 0.07 0.07 0.06 0.06 0.05 0.05 0.05 0.06 0.08 0.08 0.08 0.07 0.07 0.07 0.08 0.08 0.08 0.09 0.05 0.05 0.05 0.06 0.06 0.05 0.05 0.05 0.04 0.03 0.04 0.05 0.06 0.06 0.05
0.01 0.01 0.01 0.02 0.02 0.01 0.02 0.02 0.03 0.05 0.05 0.06 0.05 0.04 0.04 0.04 0.04 0.06 0.06 0.07 0.07 0.07 0.08 0.09 0.10 0.09 0.08 0.06 0.05 0.06 0.07 0.07 0.07 0.07 0.06 0.05 0.04 0.04 0.05 0.07 0.09 0.09 0.08
0.01 0.01 0.00 0.01 0.02 0.02 0.03 0.03 0.03 0.03 0.04 0.04 0.06 0.06 0.05 0.04 0.05 0.06 0.09 0.08 0.07 0.08 0.08 0.08 0.08 0.08 0.07 0.06 0.06 0.07 0.09 0.10 0.11 0.09 0.07 0.05 0.05 0.05 0.04 0.04 0.05 0.06 0.07
0.01 0.01 0.01 0.02 0.02 0.02 0.02 0.03 0.02 0.02 0.02 0.02 0.04 0.06 0.06 0.06 0.06 0.08 0.12 0.12 0.09 0.08 0.08 0.07 0.08 0.10 0.11 0.10 0.08 0.09 0.10 0.10 0.10 0.11 0.09 0.07 0.06 0.06 0.05 0.04 0.02 0.04 0.04
0.01 0.01 0.01 0.03 0.02 0.01 0.02 0.03 0.03 0.02 0.02 0.03 0.05 0.06 0.07 0.07 0.06 0.04 0.07 0.11 0.14 0.13 0.10 0.09 0.08 0.08 0.10 0.12 0.13 0.11 0.11 0.10 0.10 0.11 0.11 0.09 0.07 0.06 0.05 0.04 0.03 0.04 0.05
0.01 0.01 0.01 0.02 0.01 0.02 0.03 0.04 0.03 0.02 0.02 0.03 0.03 0.03 0.04 0.04 0.04 0.04 0.04 0.04 0.08 0.13 0.16 0.16 0.14 0.12 0.12 0.11 0.11 0.12 0.12 0.12 0.11 0.10 0.09 0.08 0.07 0.05 0.04 0.04 0.04 0.04 0.04
0.01 0.01 0.01 0.01 0.01 0.03 0.03 0.02 0.02 0.02 0.02 0.02 0.04 0.04 0.03 0.03 0.02 0.02 0.02 0.03 0.04 0.06 0.09 0.12 0.13 0.12 0.13 0.12 0.12 0.12 0.12 0.11 0.10 0.09 0.06 0.05 0.06 0.06 0.04 0.03 0.03 0.02 0.02
MSLP
1012.61 1012.45 1012.36 1012.38 1012.50 1012.72 1013.00 1013.29 1013.56 1013.77 1013.94 1014.07 1014.20 1014.37 1014.59 1014.88 1015.21 1015.56 1015.88 1016.13 1016.30 1016.39 1016.43 1016.43 1016.44 1016.47 1016.54 1016.64 1016.75 1016.84 1016.91 1016.95 1016.97 1016.99 1017.04 1017.12 1017.26 1017.43 1017.62 1017.80 1017.97 1018.11 1018.22
1012.69 1012.60 1012.57 1012.65 1012.83 1013.10 1013.42 1013.74 1014.02 1014.25 1014.42 1014.56 1014.69 1014.85 1015.06 1015.33 1015.63 1015.94 1016.22 1016.45 1016.60 1016.68 1016.71 1016.73 1016.75 1016.79 1016.86 1016.94 1017.03 1017.09 1017.12 1017.13 1017.13 1017.14 1017.19 1017.29 1017.45 1017.64 1017.85 1018.05 1018.22 1018.36 1018.46
1012.68 1012.66 1012.71 1012.87 1013.12 1013.45 1013.82 1014.17 1014.48 1014.73 1014.90 1015.04 1015.17 1015.31 1015.50 1015.73 1015.98 1016.24 1016.47 1016.66 1016.79 1016.87 1016.91 1016.95 1017.00 1017.07 1017.15 1017.23 1017.29 1017.32 1017.31 1017.28 1017.25 1017.25 1017.30 1017.40 1017.57 1017.78 1018.01 1018.23 1018.41 1018.55 1018.65
1012.61 1012.66 1012.80 1013.04 1013.38 1013.78 1014.19 1014.59 1014.92 1015.18 1015.36 1015.50 1015.62 1015.74 1015.89 1016.07 1016.27 1016.47 1016.65 1016.80 1016.90 1016.99 1017.06 1017.13 1017.22 1017.32 1017.42 1017.51 1017.55 1017.55 1017.50 1017.43 1017.36 1017.33 1017.36 1017.47 1017.65 1017.88 1018.13 1018.36 1018.56 1018.70 1018.81
1012.52 1012.64 1012.87 1013.20 1013.62 1014.08 1014.54 1014.97 1015.32 1015.58 1015.77 1015.90 1016.01 1016.11 1016.23 1016.37 1016.52 1016.66 1016.79 1016.90 1017.00 1017.09 1017.19 1017.31 1017.44 1017.58 1017.71 1017.79 1017.81 1017.77 1017.68 1017.56 1017.45 1017.39 1017.41 1017.52 1017.71 1017.95 1018.21 1018.46 1018.67 1018.83 1018.94
1012.45 1012.64 1012.95 1013.36 1013.84 1014.35 1014.84 1015.28 1015.63 1015.90 1016.08 1016.21 1016.31 1016.40 1016.50 1016.61 1016.72 1016.83 1016.93 1017.02 1017.11 1017.21 1017.34 1017.50 1017.68 1017.85 1017.99 1018.07 1018.06 1017.98 1017.84 1017.67 1017.53 1017.44 1017.45 1017.56 1017.76 1018.01 1018.29 1018.55 1018.77 1018.93 1019.06
1012.45 1012.70 1013.06 1013.53 1014.05 1014.58 1015.08 1015.50 1015.84 1016.09 1016.27 1016.40 1016.50 1016.60 1016.70 1016.80 1016.90 1016.99 1017.08 1017.16 1017.25 1017.38 1017.53 1017.72 1017.92 1018.11 1018.25 1018.31 1018.27 1018.15 1017.96 1017.75 1017.57 1017.47 1017.48 1017.60 1017.81 1018.07 1018.36 1018.63 1018.85 1019.02 1019.15
1012.52 1012.81 1013.21 1013.69 1014.22 1014.74 1015.22 1015.61 1015.92 1016.15 1016.32 1016.45 1016.57 1016.69 1016.81 1016.94 1017.05 1017.15 1017.23 1017.32 1017.42 1017.55 1017.72 1017.92 1018.13 1018.32 1018.44 1018.47 1018.39 1018.22 1018.00 1017.76 1017.56 1017.46 1017.47 1017.61 1017.83 1018.12 1018.41 1018.68 1018.90 1019.07 1019.20
1012.66 1012.96 1013.37 1013.85 1014.35 1014.83 1015.26 1015.60 1015.87 1016.07 1016.22 1016.37 1016.52 1016.67 1016.84 1017.00 1017.14 1017.26 1017.36 1017.45 1017.56 1017.69 1017.87 1018.06 1018.26 1018.42 1018.51 1018.51 1018.39 1018.19 1017.93 1017.67 1017.47 1017.38 1017.41 1017.57 1017.82 1018.12 1018.43 1018.69 1018.91 1019.06 1019.18
1012.83 1013.14 1013.53 1013.97 1014.43 1014.85 1015.20 1015.49 1015.70 1015.88 1016.03 1016.19 1016.37 1016.57 1016.78 1016.98 1017.16 1017.31 1017.42 1017.52 1017.63 1017.75 1017.91 1018.08 1018.25 1018.39 1018.44 1018.40 1018.25 1018.02 1017.75 1017.49 1017.30 1017.22 1017.28 1017.47 1017.74 1018.06 1018.37 1018.64 1018.84 1018.98 1019.08
1013.00 1013.29 1013.66 1014.05 1014.45 1014.80 1015.08 1015.31 1015.48 1015.62 1015.77 1015.94 1016.15 1016.40 1016.65 1016.89 1017.10 1017.26 1017.38 1017.48 1017.57 1017.68 1017.81 1017.96 1018.10 1018.20 1018.23 1018.16 1017.99 1017.75 1017.47 1017.22 1017.05 1017.00 1017.08 1017.29 1017.58 1017.91 1018.22 1018.48 1018.67 1018.80 1018.89
1013.12 1013.40 1013.73 1014.08 1014.42 1014.70 1014.93 1015.09 1015.23 1015.35 1015.50 1015.69 1015.92 1016.18 1016.46 1016.73 1016.95 1017.12 1017.24 1017.32 1017.39 1017.47 1017.58 1017.70 1017.81 1017.89 1017.90 1017.82 1017.65 1017.41 1017.15 1016.91 1016.75 1016.71 1016.81 1017.03 1017.32 1017.65 1017.96 1018.22 1018.40 1018.52 1018.61
1013.18 1013.45 1013.75 1014.06 1014.35 1014.58 1014.76 1014.90 1015.01 1015.12 1015.26 1015.45 1015.69 1015.96 1016.24 1016.51 1016.72 1016.88 1016.98 1017.05 1017.10 1017.15 1017.23 1017.33 1017.43 1017.51 1017.52 1017.44 1017.29 1017.07 1016.82 1016.59 1016.44 1016.40 1016.49 1016.69 1016.98 1017.29 1017.59 1017.84 1018.02 1018.15 1018.24
1013.15 1013.42 1013.71 1013.99 1014.24 1014.45 1014.61 1014.73 1014.83 1014.94 1015.07 1015.26 1015.48 1015.74 1016.01 1016.25 1016.44 1016.58 1016.66 1016.70 1016.73 1016.77 1016.83 1016.92 1017.03 1017.11 1017.14 1017.09 1016.96 1016.77 1016.53 1016.31 1016.15 1016.09 1016.14 1016.30 1016.55 1016.83 1017.11 1017.35 1017.54 1017.68 1017.79
1013.03 1013.31 1013.60 1013.87 1014.12 1014.32 1014.48 1014.60 1014.70 1014.81 1014.93 1015.10 1015.30 1015.53 1015.76 1015.96 1016.12 1016.23 1016.29 1016.31 1016.33 1016.36 1016.43 1016.53 1016.65 1016.76 1016.82 1016.81 1016.71 1016.55 1016.33 1016.10 1015.90 1015.79 1015.78 1015.88 1016.06 1016.29 1016.53 1016.77 1016.97 1017.13 1017.28
1012.81 1013.11 1013.41 1013.69 1013.95 1014.17 1014.35 1014.49 1014.60 1014.71 1014.82 1014.96 1015.13 1015.31 1015.49 1015.65 1015.78 1015.87 1015.91 1015.93 1015.95 1015.99 1016.07 1016.19 1016.34 1016.48 1016.58 1016.61 1016.56 1016.41 1016.20 1015.95 1015.71 1015.53 1015.43 1015.43 1015.52 1015.69 1015.89 1016.11 1016.32 1016.52 1016.71
1012.50 1012.81 1013.13 1013.43 1013.72 1013.97 1014.19 1014.36 1014.49 1014.60 1014.70 1014.80 1014.92 1015.05 1015.19 1015.31 1015.41 1015.49 1015.53 1015.56 1015.61 1015.67 1015.78 1015.93 1016.10 1016.28 1016.42 1016.49 1016.46 1016.34 1016.12 1015.84 1015.55 1015.29 1015.09 1014.98 1014.97 1015.06 1015.21 1015.41 1015.64 1015.87 1016.11
1012.07 1012.41 1012.75 1013.08 1013.41 1013.70 1013.96 1014.17 1014.32 1014.43 1014.52 1014.59 1014.66 1014.74 1014.83 1014.93 1015.01 1015.09 1015.15 1015.21 1015.29 1015.39 1015.52 1015.70 1015.90 1016.11 1016.28 1016.38 1016.38 1016.28 1016.06 1015.76 1015.41 1015.07 1014.77 1014.55 1014.44 1014.44 1014.53 1014.71 1014.94 1015.21 1015.49
1011.53 1011.89 1012.25 1012.62 1012.98 1013.33 1013.63 1013.88 1014.06 1014.18 1014.25 1014.29 1014.32 1014.35 1014.41 1014.48 1014.56 1014.66 1014.75 1014.85 1014.97 1015.10 1015.27 1015.47 1015.69 1015.92 1016.11 1016.24 1016.27 1016.18 1015.97 1015.66 1015.27 1014.86 1014.48 1014.16 1013.95 1013.86 1013.90 1014.04 1014.26 1014.55 1014.87
1010.86 1011.23 1011.62 1012.03 1012.44 1012.84 1013.20 1013.49 1013.70 1013.82 1013.88 1013.89 1013.88 1013.88 1013.90 1013.96 1014.05 1014.17 1014.30 1014.44 1014.60 1014.77 1014.96 1015.18 1015.41 1015.65 1015.86 1016.00 1016.06 1016.00 1015.81 1015.51 1015.11 1014.66 1014.22 1013.83 1013.53 1013.36 1013.33 1013.43 1013.64 1013.93 1014.27
1010.07 1010.46 1010.87 1011.32 1011.78 1012.23 1012.64 1012.98 1013.22 1013.36 1013.41 1013.39 1013.35 1013.32 1013.32 1013.36 1013.46 1013.60 1013.76 1013.94 1014.14 1014.33 1014.55 1014.77 1015.01 1015.25 1015.46 1015.63 1015.72 1015.70 1015.56 1015.28 1014.91 1014.46 1013.99 1013.55 1013.20 1012.96 1012.86 1012.90 1013.07 1013.35 1013.70
1009.18 1009.58 1010.03 1010.51 1011.02 1011.52 1011.98 1012.37 1012.64 1012.80 1012.85 1012.82 1012.75 1012.68 1012.66 1012.69 1012.78 1012.93 1013.12 1013.33 1013.54 1013.76 1013.98 1014.21 1014.45 1014.68 1014.91 1015.10 1015.23 1015.26 1015.18 1014.97 1014.65 1014.23 1013.78 1013.33 1012.93 1012.64 1012.48 1012.47 1012.59 1012.84 1013.17
1008.23 1008.65 1009.12 1009.64 1010.19 1010.74 1011.25 1011.67 1011.98 1012.16 1012.21 1012.17 1012.08 1011.99 1011.93 1011.94 1012.02 1012.16 1012.36 1012.58 1012.81 1013.03 1013.26 1013.48 1013.71 1013.95 1014.19 1014.41 1014.58 1014.68 1014.67 1014.55 1014.31 1013.97 1013.56 1013.13 1012.72 1012.40 1012.19 1012.12 1012.19 1012.39 1012.69
1007.28 1007.72 1008.21 1008.75 1009.33 1009.91 1010.46 1010.92 1011.26 1011.46 1011.53 1011.48 1011.37 1011.25 1011.16 1011.14 1011.19 1011.31 1011.49 1011.70 1011.93 1012.16 1012.38 1012.60 1012.83 1013.07 1013.32 1013.56 1013.78 1013.95 1014.03 1014.01 1013.87 1013.62 1013.29 1012.91 1012.53 1012.20 1011.96 1011.84 1011.85 1011.99 1012.25
1006.40 1006.85 1007.35 1007.90 1008.49 1009.09 1009.66 1010.14 1010.51 1010.73 1010.81 1010.76 1010.64 1010.49 1010.36 1010.29 1010.30 1010.39 1010.54 1010.73 1010.95 1011.17 1011.38 1011.60 1011.83 1012.07 1012.33 1012.60 1012.87 1013.10 1013.26 1013.34 1013.31 1013.17 1012.94 1012.64 1012.31 1012.00 1011.74 1011.59 1011.55 1011.64 1011.85
1005.66 1006.11 1006.60 1007.14 1007.71 1008.31 1008.88 1009.37 1009.75 1009.99 1010.07 1010.03 1009.90 1009.72 1009.56 1009.45 1009.40 1009.44 1009.55 1009.72 1009.91 1010.11 1010.32 1010.54 1010.77 1011.01 1011.28 1011.57 1011.86 1012.14 1012.38 1012.55 1012.63 1012.60 1012.48 1012.27 1012.02 1011.76 1011.52 1011.35 1011.28 1011.33 1011.50
Thickness
5801 5803 5796 5795 5794 5793 5792 5792 5791 5790 5789 5787 5786 5784 5783 5783 5782 5781 5780 5779 5778 5778 5778 5778 5778 5777 5776 5775 5774 5773 5772 5771 5770 5769 5768 5766 5765 5764 5763 5762 5762 5762 5759
5804 5802 5796 5795 5794 5793 5792 5791 5791 5790 5788 5787 5786 5784 5783 5782 5781 5780 5779 5777 5777 5776 5776 5776 5776 5776 5775 5774 5772 5772 5771 5770 5769 5768 5767 5765 5764 5763 5762 5762 5762 5762 5759
5805 5803 5798 5795 5794 5793 5791 5791 5790 5789 5788 5786 5785 5783 5782 5781 5780 5779 5778 5777 5776 5775 5775 5774 5774 5774 5773 5772 5771 5771 5770 5769 5768 5767 5767 5768 5765 5762 5761 5761 5760 5759 5757
5805 5803 5800 5794 5793 5792 5791 5790 5789 5788 5787 5785 5784 5783 5782 5781 5780 5779 5777 5776 5775 5774 5773 5773 5773 5772 5772 5771 5770 5769 5768 5768 5767 5767 5769 5770 5768 5763 5761 5759 5758 5757 5756
5805 5803 5798 5794 5792 5791 5790 5789 5788 5787 5786 5785 5784 5783 5782 5781 5780 5778 5777 5775 5774 5773 5772 5771 5771 5770 5770 5769 5769 5768 5768 5767 5767 5768 5770 5769 5767 5763 5760 5759 5758 5757 5755
5805 5803 5798 5793 5791 5790 5789 5788 5787 5786 5786 5785 5784 5783 5782 5780 5779 5778 5776 5774 5773 5772 5771 5771 5770 5769 5769 5768 5768 5767 5767 5767 5767 5770 5769 5768 5767 5762 5760 5758 5757 5756 5755
5804 5802 5799 5792 5790 5789 5788 5787 5786 5786 5785 5784 5783 5782 5781 5780 5779 5777 5775 5774 5773 5772 5771 5770 5769 5769 5768 5768 5767 5767 5766 5767 5769 5771 5769 5767 5765 5761 5759 5757 5756 5755 5754
5804 5802 5798 5791 5789 5788 5787 5786 5786 5785 5784 5783 5783 5782 5781 5779 5778 5776 5775 5773 5772 5771 5769 5769 5768 5768 5767 5767 5767 5767 5766 5767 5769 5771 5770 5768 5764 5761 5758 5757 5755 5754 5752
5802 5800 5797 5794 5791 5788 5787 5786 5785 5784 5783 5783 5782 5781 5780 5779 5777 5776 5774 5772 5771 5769 5768 5768 5767 5767 5767 5767 5766 5766 5766 5767 5769 5770 5770 5768 5764 5761 5758 5756 5754 5753 5751
5799 5798 5796 5794 5793 5791 5789 5785 5784 5783 5782 5782 5782 5781 5780 5778 5777 5775 5774 5772 5770 5769 5768 5767 5767 5767 5766 5766 5766 5766 5766 5766 5770 5771 5770 5767 5762 5760 5758 5756 5753 5752 5750
5795 5796 5796 5795 5794 5793 5791 5787 5785 5784 5783 5783 5782 5781 5780 5781 5779 5777 5774 5772 5770 5769 5768 5767 5766 5766 5766 5766 5766 5766 5766 5769 5772 5771 5769 5765 5762 5759 5757 5755 5753 5751 5749
5793 5794 5794 5794 5793 5793 5791 5789 5788 5787 5785 5784 5784 5783 5782 5780 5779 5777 5774 5772 5770 5768 5768 5767 5767 5766 5767 5769 5768 5766 5769 5770 5771 5771 5769 5764 5760 5758 5756 5755 5753 5751 5749
5794 5793 5793 5793 5790 5791 5790 5789 5788 5788 5786 5785 5783 5782 5782 5781 5780 5778 5776 5774 5771 5770 5769 5769 5769 5769 5769 5769 5769 5769 5769 5770 5770 5770 5768 5762 5759 5757 5756 5754 5753 5751 5749
5793 5792 5792 5791 5789 5788 5788 5789 5788 5788 5786 5785 5783 5782 5782 5781 5780 5779 5776 5775 5774 5772 5770 5771 5770 5769 5768 5768 5768 5768 5768 5768 5768 5768 5764 5760 5758 5756 5754 5753 5752 5750 5748
5792 5791 5791 5790 5788 5786 5785 5786 5787 5786 5786 5784 5782 5781 5781 5781 5779 5778 5776 5774 5774 5773 5772 5770 5770 5768 5767 5767 5767 5767 5767 5767 5766 5765 5763 5759 5757 5755 5754 5753 5751 5749 5748
5793 5792 5792 5789 5788 5785 5784 5784 5785 5786 5784 5784 5783 5782 5780 5780 5779 5778 5776 5774 5774 5772 5771 5770 5770 5768 5767 5766 5765 5765 5765 5765 5764 5763 5762 5759 5756 5754 5753 5751 5750 5748 5747
5796 5794 5792 5790 5788 5786 5784 5785 5785 5785 5785 5785 5783 5781 5780 5779 5778 5777 5776 5775 5774 5772 5770 5769 5769 5768 5766 5765 5764 5764 5764 5764 5763 5761 5760 5758 5757 5753 5751 5750 5748 5747 5745
5799 5795 5794 5793 5790 5787 5785 5784 5786 5786 5785 5783 5782 5781 5779 5778 5776 5775 5775 5775 5773 5772 5771 5769 5768 5766 5765 5763 5762 5762 5762 5761 5761 5759 5758 5756 5755 5754 5751 5748 5747 5745 5743
5799 5796 5793 5792 5790 5788 5786 5785 5785 5784 5783 5783 5783 5781 5779 5777 5776 5775 5774 5773 5771 5771 5770 5769 5767 5765 5762 5760 5760 5760 5761 5760 5759 5758 5756 5754 5752 5751 5750 5748 5746 5744 5742
5802 5798 5794 5791 5789 5788 5787 5784 5784 5783 5784 5783 5782 5779 5778 5777 5776 5775 5774 5772 5771 5770 5768 5766 5764 5762 5761 5759 5760 5759 5759 5758 5757 5756 5755 5753 5751 5750 5749 5747 5745 5743 5741
5802 5798 5795 5791 5789 5787 5786 5784 5782 5782 5782 5782 5781 5778 5777 5776 5776 5774 5775 5772 5771 5769 5767 5766 5764 5761 5760 5759 5757 5755 5756 5757 5755 5754 5753 5752 5750 5748 5746 5744 5743 5742 5741
5802 5799 5796 5793 5791 5788 5787 5785 5783 5782 5782 5781 5781 5777 5776 5776 5775 5776 5773 5772 5771 5768 5765 5764 5762 5761 5760 5759 5756 5752 5748 5749 5750 5753 5751 5749 5747 5746 5744 5743 5740 5739 5738
5804 5800 5799 5795 5792 5790 5788 5787 5784 5781 5780 5780 5778 5776 5776 5775 5774 5773 5772 5771 5769 5768 5766 5763 5762 5758 5757 5757 5757 5752 5746 5743 5745 5748 5746 5746 5744 5743 5742 5741 5739 5737 5736
5806 5804 5799 5795 5792 5790 5788 5786 5782 5779 5778 5777 5777 5776 5775 5774 5772 5772 5770 5769 5767 5767 5764 5763 5762 5759 5756 5754 5754 5752 5749 5747 5742 5739 5742 5744 5742 5740 5739 5740 5739 5736 5734
5808 5805 5800 5795 5791 5790 5788 5785 5781 5780 5779 5779 5777 5773 5772 5772 5771 5770 5768 5767 5765 5764 5762 5760 5758 5757 5756 5754 5753 5751 5748 5745 5743 5738 5734 5736 5738 5739 5739 5737 5736 5735 5733
5808 5805 5800 5793 5789 5788 5786 5784 5781 5779 5777 5775 5773 5772 5771 5771 5770 5769 5767 5766 5764 5763 5760 5758 5756 5755 5753 5751 5751 5750 5747 5744 5741 5738 5734 5733 5734 5737 5737 5736 5735 5734 5733